When you browse on this site, cookies collect data to enhance your experience and personalize the content and advertising you see.
Visit our Privacy Policy to learn more. By continuing to use the site, you agree to this use of cookies and data.
  • In Lithuania
  • List of Countries
  • For 7 days
  • Water Temperature
  • Satellite Maps
  • Weather Map
  • Weather Widgets
  • user-avatar
    Login

    Hourly Weather Malye Plotiki

    Today, 20 May, Monday

    Time Temperature Precipitation Wind Pressure Humidity
    00:00 +12°C° 0 mm 2 mps 745 mmHg 78%
    01:00 +12°C° 0 mm 2 mps 745 mmHg 77%
    02:00 +10°C° 0 mm 2 mps 746 mmHg 76%
    03:00 +10°C° 0 mm 1 mps 746 mmHg 74%
    04:00 +11°C° 0 mm 1 mps 746 mmHg 74%
    05:00 +11°C° 0 mm 1 mps 746 mmHg 74%
    06:00 +11°C° 0 mm 1 mps 747 mmHg 74%
    07:00 +13°C° 0 mm 1 mps 747 mmHg 68%
    08:00 +14°C° 0 mm 1 mps 747 mmHg 62%
    09:00 +15°C° 0 mm 1 mps 747 mmHg 57%
    10:00 +16°C° 0 mm 1 mps 747 mmHg 55%
    11:00 +17°C° 0 mm 2 mps 747 mmHg 53%
    12:00 +19°C° 0 mm 2 mps 747 mmHg 52%
    13:00 +19°C° 0 mm 2 mps 747 mmHg 51%
    14:00 +20°C° 0 mm 2 mps 747 mmHg 51%
    15:00 +20°C° 0 mm 2 mps 747 mmHg 50%
    16:00 +20°C° 0 mm 2 mps 747 mmHg 53%
    17:00 +20°C° 0 mm 2 mps 746 mmHg 56%
    18:00 +21°C° 0 mm 1 mps 746 mmHg 59%
    19:00 +19°C° 0 mm 1 mps 746 mmHg 64%
    20:00 +17°C° 0 mm 2 mps 746 mmHg 69%
    21:00 +15°C° 0 mm 2 mps 746 mmHg 74%
    22:00 +14°C° 0 mm 2 mps 747 mmHg 76%
    23:00 +14°C° 0 mm 2 mps 747 mmHg 77%

    Tomorrow, 21 May, Tuesday

    Time Temperature Precipitation Wind Pressure Humidity
    00:00 +13°C° 0 mm 2 mps 747 mmHg 78%
    01:00 +13°C° 0 mm 2 mps 747 mmHg 80%
    02:00 +12°C° 0 mm 2 mps 747 mmHg 82%
    03:00 +12°C° 0 mm 2 mps 747 mmHg 83%
    04:00 +12°C° 0 mm 2 mps 747 mmHg 84%
    05:00 +12°C° 0 mm 2 mps 748 mmHg 84%
    06:00 +13°C° 0 mm 2 mps 748 mmHg 85%
    07:00 +14°C° 0 mm 2 mps 748 mmHg 79%
    08:00 +16°C° 0 mm 2 mps 748 mmHg 74%
    09:00 +18°C° 0 mm 2 mps 748 mmHg 69%
    10:00 +19°C° 0 mm 2 mps 748 mmHg 65%
    11:00 +20°C° 0 mm 2 mps 747 mmHg 61%
    12:00 +21°C° 0 mm 2 mps 747 mmHg 57%
    13:00 +21°C° 0 mm 3 mps 747 mmHg 55%
    14:00 +21°C° 0 mm 3 mps 746 mmHg 54%
    15:00 +22°C° 0 mm 4 mps 746 mmHg 52%
    16:00 +21°C° 0 mm 3 mps 746 mmHg 56%
    17:00 +21°C° 0 mm 3 mps 745 mmHg 60%
    18:00 +20°C° 0 mm 3 mps 745 mmHg 64%
    19:00 +19°C° 0 mm 3 mps 745 mmHg 67%
    20:00 +17°C° 0 mm 3 mps 745 mmHg 70%
    21:00 +15°C° 0 mm 2 mps 745 mmHg 72%
    22:00 +15°C° 0 mm 2 mps 745 mmHg 74%
    23:00 +13°C° 0 mm 3 mps 744 mmHg 76%

    Day after tomorrow, 22 May, Wednesday

    Time Temperature Precipitation Wind Pressure Humidity
    00:00 +12°C° 0 mm 3 mps 744 mmHg 78%
    01:00 +12°C° 0 mm 3 mps 744 mmHg 80%
    02:00 +12°C° 0 mm 3 mps 744 mmHg 83%
    03:00 +11°C° 0 mm 3 mps 744 mmHg 86%
    04:00 +12°C° 0 mm 3 mps 743 mmHg 86%
    05:00 +12°C° 0 mm 3 mps 743 mmHg 85%
    06:00 +12°C° 0 mm 3 mps 743 mmHg 85%
    07:00 +14°C° 0 mm 3 mps 743 mmHg 80%
    08:00 +17°C° 0 mm 3 mps 743 mmHg 76%
    09:00 +19°C° 0 mm 3 mps 742 mmHg 71%
    10:00 +20°C° 0 mm 3 mps 742 mmHg 67%
    11:00 +21°C° 0 mm 4 mps 742 mmHg 62%
    12:00 +22°C° 0 mm 4 mps 742 mmHg 58%
    13:00 +22°C° 0 mm 5 mps 741 mmHg 57%
    14:00 +22°C° 0 mm 5 mps 741 mmHg 57%
    15:00 +22°C° 0 mm 5 mps 741 mmHg 57%
    16:00 +22°C° 0 mm 4 mps 740 mmHg 60%
    17:00 +22°C° 0 mm 4 mps 740 mmHg 63%
    18:00 +21°C° 0 mm 4 mps 740 mmHg 66%
    19:00 +20°C° 0 mm 3 mps 739 mmHg 70%
    20:00 +18°C° 0 mm 3 mps 739 mmHg 74%
    21:00 +17°C° 0 mm 3 mps 739 mmHg 78%
    22:00 +16°C° 0 mm 3 mps 739 mmHg 79%
    23:00 +16°C° 0 mm 3 mps 739 mmHg 81%

    23 May, Thursday

    Time Temperature Precipitation Wind Pressure Humidity
    00:00 +14°C° 0 mm 3 mps 739 mmHg 82%
    01:00 +14°C° 0 mm 3 mps 738 mmHg 84%
    02:00 +13°C° 0 mm 3 mps 738 mmHg 85%
    03:00 +13°C° 0 mm 3 mps 738 mmHg 87%
    04:00 +13°C° 0 mm 3 mps 738 mmHg 86%
    05:00 +14°C° 0 mm 3 mps 738 mmHg 86%
    06:00 +14°C° 0 mm 3 mps 737 mmHg 86%
    07:00 +16°C° 0 mm 3 mps 737 mmHg 83%
    08:00 +18°C° 0 mm 3 mps 737 mmHg 79%
    09:00 +20°C° 0 mm 4 mps 737 mmHg 76%
    10:00 +21°C° 0.5 mm 4 mps 737 mmHg 74%
    11:00 +22°C° 0.5 mm 4 mps 737 mmHg 71%
    12:00 +23°C° 0.5 mm 4 mps 736 mmHg 68%
    13:00 +23°C° 0.8 mm 4 mps 736 mmHg 67%
    14:00 +23°C° 0.8 mm 4 mps 736 mmHg 67%
    15:00 +25°C° 0.8 mm 5 mps 736 mmHg 66%
    16:00 +23°C° 0.4 mm 4 mps 736 mmHg 69%
    17:00 +23°C° 0.4 mm 4 mps 736 mmHg 71%
    18:00 +24°C° 0.4 mm 3 mps 736 mmHg 74%
    19:00 +21°C° 0.2 mm 3 mps 736 mmHg 78%
    20:00 +20°C° 0.2 mm 2 mps 736 mmHg 83%
    21:00 +18°C° 0.2 mm 2 mps 736 mmHg 87%
    22:00 +18°C° 0 mm 2 mps 736 mmHg 89%
    23:00 +17°C° 0 mm 2 mps 736 mmHg 91%

    24 May, Friday

    Time Temperature Precipitation Wind Pressure Humidity
    00:00 +18°C° 0 mm 1 mps 736 mmHg 92%
    01:00 +16°C° 0 mm 1 mps 736 mmHg 93%
    02:00 +16°C° 0 mm 2 mps 736 mmHg 93%
    03:00 +16°C° 0 mm 2 mps 736 mmHg 94%
    04:00 +16°C° 0 mm 2 mps 736 mmHg 94%
    05:00 +16°C° 0 mm 2 mps 736 mmHg 94%
    06:00 +16°C° 0 mm 2 mps 736 mmHg 94%
    07:00 +17°C° 0 mm 3 mps 737 mmHg 93%
    08:00 +17°C° 0 mm 3 mps 737 mmHg 91%
    09:00 +17°C° 0 mm 3 mps 737 mmHg 90%
    10:00 +18°C° 0 mm 3 mps 737 mmHg 87%
    11:00 +19°C° 0 mm 4 mps 737 mmHg 84%
    12:00 +19°C° 0 mm 4 mps 737 mmHg 81%
    13:00 +19°C° 0 mm 4 mps 737 mmHg 81%
    14:00 +20°C° 0 mm 4 mps 737 mmHg 80%
    15:00 +20°C° 0 mm 4 mps 736 mmHg 80%
    16:00 +19°C° 0 mm 4 mps 736 mmHg 81%
    17:00 +19°C° 0 mm 4 mps 736 mmHg 81%
    18:00 +19°C° 0 mm 4 mps 736 mmHg 82%
    19:00 +18°C° 0.1 mm 4 mps 736 mmHg 85%
    20:00 +17°C° 0.1 mm 4 mps 736 mmHg 88%
    21:00 +17°C° 0.1 mm 4 mps 736 mmHg 92%
    22:00 +15°C° 0 mm 4 mps 736 mmHg 93%
    23:00 +15°C° 0 mm 4 mps 736 mmHg 95%

    25 May, Saturday

    Time Temperature Precipitation Wind Pressure Humidity
    00:00 +14°C° 0 mm 4 mps 736 mmHg 97%
    01:00 +14°C° 0 mm 4 mps 736 mmHg 97%
    02:00 +14°C° 0 mm 5 mps 736 mmHg 96%
    03:00 +14°C° 0 mm 5 mps 736 mmHg 96%
    04:00 +14°C° 0 mm 4 mps 736 mmHg 96%
    05:00 +14°C° 0 mm 4 mps 736 mmHg 95%
    06:00 +15°C° 0 mm 4 mps 736 mmHg 95%
    07:00 +15°C° 0 mm 4 mps 736 mmHg 93%
    08:00 +17°C° 0 mm 4 mps 736 mmHg 90%
    09:00 +18°C° 0 mm 4 mps 736 mmHg 88%
    10:00 +20°C° 0.4 mm 4 mps 736 mmHg 82%
    11:00 +21°C° 0.4 mm 4 mps 736 mmHg 76%
    12:00 +23°C° 0.4 mm 4 mps 736 mmHg 70%
    13:00 +23°C° 1.1 mm 4 mps 736 mmHg 68%
    14:00 +25°C° 1.1 mm 4 mps 736 mmHg 67%
    15:00 +25°C° 1.1 mm 4 mps 735 mmHg 66%
    16:00 +25°C° 1 mm 4 mps 735 mmHg 69%
    17:00 +24°C° 1 mm 3 mps 735 mmHg 73%
    18:00 +24°C° 1 mm 3 mps 734 mmHg 76%
    19:00 +21°C° 1.2 mm 3 mps 734 mmHg 79%
    20:00 +20°C° 1.2 mm 3 mps 734 mmHg 82%
    21:00 +18°C° 1.2 mm 3 mps 734 mmHg 85%
    22:00 +17°C° 0 mm 3 mps 734 mmHg 87%
    23:00 +17°C° 0 mm 3 mps 734 mmHg 89%
    Show more